EN

Hourly Weather Trakoscan

Today, 12 May, Wednesday

Time Temperature Precipitation Wind Pressure Humidity
00:00 +15°C° 0 mm 1 mps 727 mmHg 75%
01:00 +15°C° 0 mm 1 mps 727 mmHg 75%
02:00 +15°C° 0.3 mm 1 mps 727 mmHg 79%
03:00 +15°C° 0.3 mm 2 mps 726 mmHg 83%
04:00 +14°C° 0.3 mm 2 mps 726 mmHg 87%
05:00 +14°C° 1.8 mm 1 mps 727 mmHg 90%
06:00 +14°C° 1.8 mm 1 mps 727 mmHg 93%
07:00 +14°C° 1.8 mm 1 mps 727 mmHg 96%
08:00 +14°C° 0.5 mm 1 mps 727 mmHg 93%
09:00 +15°C° 0.5 mm 1 mps 727 mmHg 91%
10:00 +15°C° 0.5 mm 1 mps 727 mmHg 88%
11:00 +16°C° 1 mm 2 mps 727 mmHg 86%
12:00 +16°C° 1 mm 2 mps 727 mmHg 83%
13:00 +17°C° 1 mm 2 mps 727 mmHg 81%
14:00 +16°C° 0.8 mm 3 mps 727 mmHg 80%
15:00 +16°C° 0.8 mm 3 mps 727 mmHg 78%
16:00 +14°C° 0.8 mm 3 mps 727 mmHg 77%
17:00 +14°C° 0.1 mm 2 mps 727 mmHg 82%
18:00 +13°C° 0.1 mm 2 mps 727 mmHg 86%
19:00 +12°C° 0.1 mm 1 mps 727 mmHg 91%
20:00 +11°C° 0 mm 1 mps 727 mmHg 91%
21:00 +11°C° 0 mm 1 mps 727 mmHg 92%
22:00 +10°C° 0 mm 1 mps 727 mmHg 93%
23:00 +10°C° 0 mm 1 mps 727 mmHg 92%

Tomorrow, 13 May, Thursday

Time Temperature Precipitation Wind Pressure Humidity
00:00 +10°C° 0 mm 1 mps 726 mmHg 91%
01:00 +10°C° 0 mm 1 mps 726 mmHg 90%
02:00 +10°C° 0 mm 1 mps 726 mmHg 89%
03:00 +10°C° 0 mm 1 mps 726 mmHg 89%
04:00 +10°C° 0 mm 1 mps 725 mmHg 88%
05:00 +11°C° 0.1 mm 1 mps 725 mmHg 87%
06:00 +11°C° 0.1 mm 1 mps 725 mmHg 86%
07:00 +12°C° 0.1 mm 1 mps 725 mmHg 85%
08:00 +12°C° 0.1 mm 1 mps 725 mmHg 82%
09:00 +13°C° 0.1 mm 1 mps 725 mmHg 80%
10:00 +14°C° 0.1 mm 1 mps 725 mmHg 78%
11:00 +14°C° 0.1 mm 1 mps 725 mmHg 76%
12:00 +14°C° 0.1 mm 1 mps 725 mmHg 75%
13:00 +14°C° 0.1 mm 1 mps 725 mmHg 74%
14:00 +15°C° 0.2 mm 1 mps 725 mmHg 75%
15:00 +15°C° 0.2 mm 1 mps 725 mmHg 77%
16:00 +15°C° 0.2 mm 1 mps 725 mmHg 79%
17:00 +14°C° 0.2 mm 1 mps 725 mmHg 83%
18:00 +13°C° 0.2 mm 1 mps 726 mmHg 87%
19:00 +12°C° 0.2 mm 1 mps 726 mmHg 92%
20:00 +12°C° 0 mm 1 mps 726 mmHg 92%
21:00 +10°C° 0 mm 2 mps 726 mmHg 93%
22:00 +10°C° 0 mm 2 mps 726 mmHg 94%
23:00 +11°C° 0 mm 1 mps 726 mmHg 94%

Day after tomorrow, 14 May, Friday

Time Temperature Precipitation Wind Pressure Humidity
00:00 +10°C° 0 mm 1 mps 726 mmHg 95%
01:00 +10°C° 0 mm 1 mps 727 mmHg 95%
02:00 +10°C° 0 mm 1 mps 727 mmHg 95%
03:00 +10°C° 0 mm 1 mps 727 mmHg 96%
04:00 +9°C° 0 mm 1 mps 727 mmHg 96%
05:00 +10°C° 0 mm 1 mps 727 mmHg 93%
06:00 +11°C° 0 mm 1 mps 727 mmHg 90%
07:00 +12°C° 0 mm 1 mps 727 mmHg 88%
08:00 +14°C° 0.1 mm 1 mps 728 mmHg 81%
09:00 +15°C° 0.1 mm 2 mps 728 mmHg 73%
10:00 +17°C° 0.1 mm 2 mps 728 mmHg 66%
11:00 +17°C° 0.6 mm 2 mps 728 mmHg 66%
12:00 +17°C° 0.6 mm 2 mps 728 mmHg 65%
13:00 +18°C° 0.6 mm 2 mps 728 mmHg 64%
14:00 +18°C° 0.4 mm 2 mps 728 mmHg 64%
15:00 +17°C° 0.4 mm 2 mps 728 mmHg 65%
16:00 +17°C° 0.4 mm 2 mps 728 mmHg 65%
17:00 +15°C° 0.6 mm 2 mps 728 mmHg 72%
18:00 +14°C° 0.6 mm 1 mps 728 mmHg 79%
19:00 +12°C° 0.6 mm 1 mps 728 mmHg 86%
20:00 +11°C° 0.1 mm 1 mps 729 mmHg 89%
21:00 +11°C° 0.1 mm 1 mps 729 mmHg 92%
22:00 +10°C° 0.1 mm 1 mps 729 mmHg 95%
23:00 +10°C° 0 mm 1 mps 729 mmHg 96%

15 May, Saturday

Time Temperature Precipitation Wind Pressure Humidity
00:00 +9°C° 0 mm 1 mps 730 mmHg 96%
01:00 +9°C° 0 mm 1 mps 730 mmHg 97%
02:00 +9°C° 0 mm 1 mps 730 mmHg 96%
03:00 +10°C° 0 mm 1 mps 730 mmHg 96%
04:00 +10°C° 0 mm 1 mps 730 mmHg 95%
05:00 +10°C° 0 mm 1 mps 730 mmHg 94%
06:00 +11°C° 0 mm 1 mps 730 mmHg 93%
07:00 +11°C° 0 mm 1 mps 731 mmHg 92%
08:00 +12°C° 0.1 mm 1 mps 731 mmHg 89%
09:00 +12°C° 0.1 mm 1 mps 731 mmHg 86%
10:00 +13°C° 0.1 mm 1 mps 731 mmHg 83%
11:00 +14°C° 0.2 mm 1 mps 731 mmHg 77%
12:00 +16°C° 0.2 mm 1 mps 731 mmHg 71%
13:00 +18°C° 0.2 mm 1 mps 730 mmHg 64%
14:00 +18°C° 0.2 mm 1 mps 730 mmHg 64%
15:00 +18°C° 0.2 mm 1 mps 730 mmHg 63%
16:00 +19°C° 0.2 mm 1 mps 730 mmHg 62%
17:00 +16°C° 0.1 mm 1 mps 730 mmHg 70%
18:00 +15°C° 0.1 mm 1 mps 729 mmHg 78%
19:00 +12°C° 0.1 mm 0 mps 729 mmHg 86%
20:00 +11°C° 0 mm 0 mps 729 mmHg 88%
21:00 +10°C° 0 mm 0 mps 729 mmHg 90%
22:00 +10°C° 0 mm 0 mps 729 mmHg 92%
23:00 +10°C° 0 mm 1 mps 729 mmHg 92%

16 May, Sunday

Time Temperature Precipitation Wind Pressure Humidity
00:00 +10°C° 0 mm 1 mps 729 mmHg 93%
01:00 +10°C° 0 mm 1 mps 728 mmHg 94%
02:00 +9°C° 0 mm 1 mps 728 mmHg 94%
03:00 +9°C° 0 mm 1 mps 728 mmHg 95%
04:00 +9°C° 0 mm 1 mps 728 mmHg 95%
05:00 +10°C° 0 mm 1 mps 728 mmHg 90%
06:00 +12°C° 0 mm 1 mps 729 mmHg 85%
07:00 +13°C° 0 mm 1 mps 729 mmHg 81%
08:00 +15°C° 0 mm 1 mps 729 mmHg 71%
09:00 +18°C° 0 mm 1 mps 729 mmHg 62%
10:00 +20°C° 0 mm 1 mps 730 mmHg 53%
11:00 +21°C° 0 mm 1 mps 730 mmHg 51%
12:00 +22°C° 0 mm 1 mps 730 mmHg 49%
13:00 +22°C° 0 mm 1 mps 730 mmHg 47%
14:00 +22°C° 0.1 mm 1 mps 730 mmHg 52%
15:00 +20°C° 0.1 mm 2 mps 729 mmHg 56%
16:00 +19°C° 0.1 mm 2 mps 729 mmHg 60%
17:00 +18°C° 0.1 mm 2 mps 729 mmHg 67%
18:00 +16°C° 0.1 mm 1 mps 729 mmHg 75%
19:00 +15°C° 0.1 mm 1 mps 730 mmHg 82%
20:00 +14°C° 0 mm 1 mps 730 mmHg 84%
21:00 +14°C° 0 mm 1 mps 730 mmHg 85%
22:00 +12°C° 0 mm 0 mps 730 mmHg 86%
23:00 +12°C° 0 mm 0 mps 730 mmHg 86%

17 May, Monday

Time Temperature Precipitation Wind Pressure Humidity
00:00 +12°C° 0 mm 0 mps 730 mmHg 86%
01:00 +12°C° 0 mm 0 mps 730 mmHg 87%
02:00 +12°C° 0 mm 0 mps 729 mmHg 89%
03:00 +12°C° 0 mm 1 mps 729 mmHg 90%
04:00 +12°C° 0 mm 1 mps 729 mmHg 92%
05:00 +13°C° 0 mm 1 mps 729 mmHg 88%
06:00 +14°C° 0 mm 1 mps 729 mmHg 84%
07:00 +15°C° 0 mm 1 mps 729 mmHg 80%
08:00 +16°C° 0 mm 1 mps 729 mmHg 74%
09:00 +17°C° 0 mm 2 mps 728 mmHg 68%
10:00 +18°C° 0 mm 2 mps 728 mmHg 62%
11:00 +17°C° 0.3 mm 2 mps 728 mmHg 70%
12:00 +16°C° 0.3 mm 2 mps 728 mmHg 79%
13:00 +15°C° 0.3 mm 2 mps 728 mmHg 88%
14:00 +13°C° 2.5 mm 2 mps 729 mmHg 90%
15:00 +10°C° 2.5 mm 3 mps 730 mmHg 92%
16:00 +8°C° 2.5 mm 4 mps 730 mmHg 95%
17:00 +9°C° 1.1 mm 3 mps 731 mmHg 95%
18:00 +9°C° 1.1 mm 2 mps 731 mmHg 95%
19:00 +9°C° 1.1 mm 1 mps 731 mmHg 95%
20:00 +8°C° 0.2 mm 2 mps 732 mmHg 95%
21:00 +8°C° 0.2 mm 2 mps 732 mmHg 96%
22:00 +8°C° 0.2 mm 2 mps 732 mmHg 96%
23:00 +8°C° 0 mm 2 mps 732 mmHg 96%
Show more

We Need Your Consent

Meteoprog and our Service Providers may store and access personal data such as cookies, device identifiers or other similar technologies on your device and process such data to personalise content and ads, as well as provide social media features and to analyse the traffic.

  • Store and/or access information on your device

    Cookies, device identifiers or other information can be stored or accessed on your device for the purposes indicated above.

  • Personalised ads and content, ad and content measurement, audience insights, and products development

    Ads and content can be personalised based on a profile. More data can be added to better personalise ads and content. Ad and content performance can be measured. Insights about the audience who saw the ads and content can be derived. Such data can be used to develop or improve user’s experience, systems and software.

By clicking ‘I Agree’ you will allow the use of indicated cookies, device identifiers, web beacons or other similar technologies. Your settings can be changed in the browser on your device.

For certain purposes, legitimate interests may be relied on, rather than consent. You can read more about this in our Privacy and Cookie Policy.